Theta_e
325 326 330 331 327 323 327 327 332 334 336 338 339 339 338 338 340 339 335 333 332 336 332 319 329 332 326 313 310 309 310 309 308 308 308 309 309 309 309 309 310 310 310 310 310 309 309 308 308
325 328 329 329 324 326 322 322 330 334 336 339 339 339 339 337 335 335 334 332 337 335 330 316 316 319 311 309 308 307 308 308 308 308 309 309 309 309 309 310 310 310 311 311 311 311 310 309 309
324 327 328 323 323 322 323 322 334 336 338 338 339 340 337 335 335 334 332 333 337 330 321 314 313 313 313 309 308 308 308 308 308 308 309 309 309 310 310 310 310 310 311 311 311 311 311 311 311
323 325 327 324 323 324 321 322 335 335 337 338 338 337 337 334 333 333 333 332 333 329 317 315 322 321 323 310 308 308 308 308 308 309 309 310 310 310 310 310 310 311 312 312 313 313 314 315 316
323 325 324 321 323 322 321 329 336 334 335 338 337 337 337 334 334 332 333 331 333 331 324 325 330 330 327 315 309 308 308 308 309 310 310 310 310 310 311 312 313 314 315 316 318 320 322 323 324
323 324 324 324 322 321 321 328 336 334 335 338 337 336 337 336 334 333 333 330 330 328 322 328 333 332 329 320 310 308 308 309 309 310 310 311 313 314 316 317 319 321 324 325 326 326 326 326 326
322 320 324 325 323 323 321 326 333 333 335 338 337 335 335 334 330 330 332 330 330 328 325 329 333 333 329 321 310 309 310 310 311 311 313 314 317 320 323 324 326 326 326 326 326 327 327 327 328
323 320 325 325 327 324 323 324 335 333 336 338 337 334 335 331 329 330 331 331 329 330 330 327 330 331 328 321 310 311 312 312 312 315 318 319 324 325 326 327 326 326 326 326 327 328 328 328 329
322 322 325 326 327 327 325 325 334 337 337 338 338 335 334 332 329 330 330 330 330 328 329 328 329 329 329 325 312 313 315 314 315 320 324 328 328 327 327 327 326 326 328 328 328 328 329 328 327
322 321 324 323 324 326 325 323 337 337 337 337 337 337 334 329 328 328 330 331 329 328 330 328 327 328 325 318 316 315 316 317 321 323 327 327 328 329 327 328 327 327 328 327 329 328 327 327 327
322 323 322 323 324 325 325 325 334 336 335 336 335 335 332 327 326 328 331 329 328 328 328 327 323 319 325 320 321 317 318 323 324 326 327 326 327 327 327 327 327 327 327 329 329 329 323 320 319
324 323 323 324 324 325 325 326 332 335 336 336 336 335 330 325 325 328 329 329 329 328 328 327 326 326 331 326 321 318 323 326 325 326 325 325 326 326 326 327 326 329 329 327 323 322 320 314 313
325 324 323 322 322 323 325 326 332 334 336 336 336 333 330 325 326 328 328 328 327 326 322 323 325 327 327 326 318 322 324 325 326 325 325 325 325 325 326 327 328 328 326 323 321 319 311 308 308
323 323 323 322 322 322 324 326 332 334 335 335 335 333 331 327 327 328 327 326 325 322 323 327 326 326 324 322 323 325 326 326 325 325 326 326 326 325 327 327 327 323 321 318 314 309 308 306 305
322 323 323 323 323 323 325 329 331 333 334 333 333 332 331 330 329 328 327 324 325 323 324 327 327 322 324 326 326 327 327 325 326 326 325 325 325 327 327 326 321 318 315 309 308 306 304 301 300
321 321 320 320 320 323 325 328 327 333 334 334 333 332 332 332 331 329 327 326 326 323 320 323 324 323 324 327 327 326 326 327 327 326 328 324 325 327 324 320 317 310 308 306 304 302 301 300 299
320 321 321 321 319 320 323 327 327 331 333 329 327 328 332 331 328 327 327 327 325 327 327 327 326 326 326 327 328 327 328 327 326 328 329 324 323 321 319 316 309 307 304 301 301 300 300 299 298
318 319 318 319 317 314 321 325 326 328 330 325 323 324 329 330 329 328 328 327 328 329 329 328 327 327 328 329 329 329 327 327 328 328 325 320 320 319 313 308 305 302 300 300 299 299 299 299 298
316 316 317 318 313 314 317 317 326 326 328 324 321 319 322 323 328 328 328 329 329 329 328 327 328 328 329 329 328 327 327 327 328 323 319 318 316 311 306 303 301 300 299 299 299 298 298 298 297
314 315 315 312 313 313 313 314 313 324 326 323 321 318 318 317 322 324 326 327 328 328 328 329 329 329 329 329 328 327 327 326 322 318 317 314 307 305 302 300 299 298 298 298 297 297 297 297 296
313 315 313 314 311 312 312 316 318 322 324 322 320 318 314 317 317 321 322 325 324 326 327 327 328 329 329 329 328 327 326 321 317 316 313 307 304 300 299 298 298 298 297 297 296 296 295 295 295
313 312 313 312 314 318 312 318 313 313 323 321 319 317 316 317 317 319 321 322 321 325 327 327 327 327 327 328 328 327 326 320 316 313 308 304 300 298 298 297 297 297 296 296 295 295 294 294 294
312 313 314 313 313 313 313 317 317 317 316 322 319 317 313 316 317 314 320 319 320 323 325 326 326 327 327 325 321 322 317 315 314 309 304 300 298 297 297 297 296 296 295 295 294 293 293 293 292
310 312 313 312 314 316 315 316 316 321 318 318 319 316 312 312 312 314 315 315 319 321 323 323 323 322 321 321 320 318 319 313 309 305 299 298 297 297 297 296 296 295 294 294 293 292 292 291 291
311 313 314 315 316 315 315 316 314 319 318 318 316 312 308 309 311 312 316 314 318 319 320 319 320 321 320 317 315 316 313 304 302 300 298 297 297 296 296 295 295 294 294 293 292 291 291 290 289
311 313 315 317 317 316 315 317 317 315 316 316 315 313 308 308 310 310 311 315 317 317 317 318 318 321 317 318 315 304 303 300 299 298 297 297 296 296 295 295 294 293 293 292 291 291 290 289 288
308 310 310 313 314 319 318 317 316 312 316 316 315 309 307 307 309 309 309 315 317 318 318 319 318 318 319 315 309 300 298 298 297 297 296 296 296 295 295 294 293 293 292 291 290 290 289 288 288
307 310 309 312 317 317 317 318 317 312 315 315 313 306 306 306 307 308 314 309 313 313 311 314 316 315 316 308 302 300 298 297 296 296 296 296 295 294 294 293 293 292 291 290 290 289 289 288 287
308 308 310 312 314 317 317 316 308 311 315 313 311 307 305 305 307 308 311 312 312 310 314 314 312 312 304 299 299 298 297 296 296 296 295 295 294 294 293 293 292 291 291 290 289 289 288 288 287
309 308 309 307 308 313 313 314 303 304 305 313 309 306 303 304 306 307 308 311 311 315 312 308 309 304 300 298 297 297 296 296 295 295 295 294 293 293 292 292 292 291 291 290 289 289 288 287 287
Wind_Speed
6 3 2 4 2 3 4 6 3 5 4 12 10 14 10 10 3 3 19 19 18 23 20 20 20 18 13 10 11 12 11 11 12 12 11 12 12 12 13 12 12 12 13 13 14 14 13 13 13
6 3 5 4 4 2 6 7 7 6 13 23 21 15 7 4 7 21 26 16 23 23 20 19 18 16 12 12 13 13 14 13 13 12 11 11 12 12 12 12 12 12 13 14 13 13 14 13 13
8 7 4 3 4 6 5 3 8 15 23 12 8 13 6 8 16 20 19 21 22 22 20 21 20 18 15 14 14 14 14 13 12 11 11 11 11 11 11 11 11 12 13 13 13 14 14 14 13
11 5 6 1 6 9 8 2 7 11 14 13 21 8 8 4 24 17 19 21 23 21 21 23 21 19 15 13 13 13 13 12 12 11 11 10 10 10 11 11 12 13 13 14 14 14 14 14 14
8 3 2 4 8 9 6 6 15 7 10 19 16 5 8 12 10 20 22 18 24 19 22 22 20 18 14 13 12 12 13 12 11 11 10 9 10 11 11 12 12 12 12 13 13 13 13 14 14
2 2 2 4 9 15 5 12 21 9 16 17 16 11 7 13 19 26 22 25 22 18 23 22 20 18 12 12 11 11 11 11 11 10 10 11 11 11 11 12 12 12 12 12 13 13 13 13 14
5 3 4 6 10 17 12 13 11 12 11 6 29 6 13 23 30 29 24 23 22 17 23 22 22 20 15 12 10 11 11 11 10 10 11 11 10 12 12 12 12 13 13 13 13 13 12 11 11
5 5 4 5 9 16 19 16 20 15 2 29 24 10 12 30 31 29 26 23 20 19 20 20 22 19 15 12 11 10 10 10 10 10 10 9 11 10 13 12 11 10 9 9 9 10 9 10 10
11 2 5 5 6 11 29 8 6 10 19 6 10 27 28 35 35 29 26 24 21 19 21 21 22 19 15 11 10 9 8 8 10 10 10 9 8 8 9 8 8 7 7 8 8 8 8 9 7
9 5 8 8 13 15 24 14 12 8 13 6 14 16 42 40 39 35 33 29 27 24 21 18 19 17 13 11 11 9 8 8 8 8 7 5 6 5 3 4 6 6 6 5 7 5 6 6 6
5 9 4 17 25 27 22 28 14 20 4 16 28 42 47 43 40 38 32 31 29 26 25 21 15 15 12 14 12 11 9 10 9 7 7 5 2 1 2 3 4 5 3 2 2 3 7 7 6
11 15 14 24 34 21 15 24 8 14 11 30 34 48 49 46 43 42 35 34 34 33 27 21 19 15 16 13 10 12 13 12 6 5 5 4 2 2 2 1 3 4 2 3 6 7 8 6 6
17 9 16 20 29 26 25 19 11 3 16 30 40 41 44 46 44 42 35 33 28 28 29 26 23 20 18 12 15 15 12 10 7 5 4 3 3 3 4 3 1 2 2 6 6 5 5 6 6
12 11 18 20 26 22 19 9 6 6 31 37 44 35 38 41 42 39 34 32 28 27 31 28 27 23 19 19 17 16 13 10 8 7 6 5 4 4 3 0 1 2 5 5 3 5 4 4 3
11 10 14 27 24 13 14 6 5 16 27 35 33 35 35 35 32 34 32 35 30 27 31 31 27 24 23 20 19 16 11 10 10 8 7 3 3 3 2 2 1 3 2 3 3 3 4 3 2
5 9 16 17 26 19 13 22 4 25 30 29 31 31 36 36 37 36 35 32 27 27 27 30 26 24 24 23 19 17 16 12 9 9 7 2 2 6 4 1 2 3 3 1 2 4 4 5 3
7 9 8 10 19 12 9 9 11 21 30 29 27 33 40 36 37 40 34 28 27 29 30 30 26 26 24 22 21 18 14 12 11 8 8 5 5 4 3 2 3 2 1 4 5 6 7 7 5
12 7 10 12 5 7 14 17 15 25 26 27 28 33 37 36 36 35 34 34 33 33 33 32 31 29 24 23 20 17 15 14 9 12 10 5 4 4 3 3 1 1 3 5 6 8 9 9 6
9 6 10 7 5 3 8 12 15 24 23 23 23 26 35 34 34 33 31 34 33 32 33 33 31 28 26 24 21 19 17 13 16 14 10 5 5 6 5 2 1 3 4 6 7 8 7 7 6
16 14 8 3 0 5 4 15 11 17 23 30 30 26 30 32 32 31 31 32 31 31 30 30 27 26 25 23 22 21 18 19 15 12 8 7 8 6 3 0 2 4 6 6 7 8 9 8 6
13 13 6 1 2 2 3 6 6 14 14 23 23 25 26 34 32 32 30 30 30 28 29 28 27 27 25 24 24 23 22 19 16 12 10 10 7 3 1 1 2 4 6 7 8 9 9 8 7
13 10 14 5 3 3 2 4 2 13 10 15 24 28 35 34 32 30 30 28 26 26 26 29 30 29 27 27 26 27 24 20 17 13 12 9 6 3 1 2 3 5 7 7 8 8 8 7 6
7 7 11 8 9 4 4 3 1 8 9 10 20 30 32 37 37 35 33 28 24 25 25 27 31 31 30 29 27 27 22 18 16 16 12 8 5 2 1 2 4 5 7 7 8 7 6 7 7
5 3 5 5 3 7 11 6 5 6 10 8 15 26 33 37 35 35 30 27 26 24 26 27 28 28 28 27 26 20 17 19 19 15 11 8 5 3 0 2 4 5 6 7 6 6 7 7 8
2 4 4 6 6 5 16 8 13 9 7 13 10 23 31 39 39 35 34 29 28 27 27 26 27 28 28 24 23 21 19 19 15 12 9 7 5 2 1 2 4 5 5 6 6 6 6 7 7
7 4 5 3 4 4 10 8 5 3 5 16 27 26 32 37 37 36 34 34 27 31 29 26 24 23 24 19 20 19 21 15 12 10 9 6 4 2 1 2 4 5 5 5 5 6 7 8 8
4 5 1 6 3 3 5 2 3 1 5 6 23 28 29 32 36 34 34 31 32 28 30 27 23 22 19 21 21 19 17 13 11 11 8 5 4 3 2 2 4 5 5 5 5 6 7 8 9
7 2 2 1 4 1 2 3 1 4 6 7 16 24 26 30 32 33 35 33 36 37 34 32 29 25 24 25 20 16 15 13 12 9 7 6 4 2 2 3 4 5 6 7 7 8 9 10 11
2 4 4 4 3 2 3 2 2 6 9 15 16 25 28 31 34 34 34 30 29 29 28 27 27 27 27 24 22 20 16 14 10 9 8 6 4 2 2 3 4 6 7 8 9 10 10 12 13
4 5 6 2 3 3 3 2 2 4 1 8 16 22 22 28 32 31 28 32 34 32 30 28 28 28 27 23 21 19 17 15 12 10 8 6 4 3 3 4 6 7 8 9 10 11 13 13 14
Wind_Direction
300 291 358 305 62 69 245 254 228 120 66 93 87 86 105 55 76 173 144 161 181 161 156 154 157 159 158 150 144 145 143 132 122 116 108 101 94 88 82 78 73 69 64 60 58 57 57 58 57
300 291 312 276 120 144 263 238 244 149 129 105 88 101 62 76 107 133 151 172 167 159 154 156 160 159 150 143 138 138 136 131 126 118 109 99 91 85 78 72 68 64 63 60 56 53 51 50 50
318 296 303 171 184 188 221 253 176 134 138 126 106 91 98 130 137 145 158 159 164 158 155 152 152 148 138 136 138 137 134 128 119 111 102 94 88 82 76 71 67 66 66 61 56 53 51 49 47
348 334 263 157 249 252 217 32 257 131 136 128 125 76 81 119 146 155 149 159 164 156 154 149 148 146 142 133 135 134 131 125 117 107 100 96 89 79 71 66 60 57 55 54 52 51 49 47 44
355 270 277 304 271 259 292 211 177 143 141 133 123 115 102 152 150 155 146 157 168 163 158 153 152 152 143 133 132 134 133 128 117 109 101 92 82 77 74 68 63 59 57 54 52 49 46 44 42
359 274 295 251 264 275 274 254 158 157 141 130 106 103 134 160 167 157 151 156 160 162 165 159 159 156 149 135 129 132 129 125 121 114 106 95 88 79 70 64 61 59 57 55 54 52 51 51 49
162 120 238 273 274 282 267 252 164 163 157 147 139 99 142 154 154 158 163 163 165 169 168 163 162 163 153 140 134 135 133 130 124 114 106 99 87 76 67 62 62 59 55 54 52 48 49 49 45
275 139 256 247 271 279 279 247 180 183 44 144 150 150 165 164 160 166 166 166 169 174 182 167 164 166 159 147 143 141 134 125 114 107 103 99 81 70 74 63 59 55 52 55 55 53 49 29 32
255 239 201 243 264 269 278 265 150 124 133 142 170 162 170 163 161 168 168 171 176 176 177 169 168 172 166 157 150 146 137 125 116 105 92 86 85 73 60 53 54 53 50 46 51 37 26 11 23
189 204 220 194 248 263 289 274 153 131 129 83 121 158 156 160 166 169 171 171 173 174 171 173 178 172 176 170 161 155 146 131 130 107 98 108 114 94 66 63 46 31 34 23 15 20 354 16 27
244 233 241 264 258 261 284 307 204 147 170 162 148 150 156 163 168 171 170 172 175 168 169 170 164 160 162 162 169 158 141 120 124 120 127 122 96 99 21 84 34 342 357 23 77 19 348 16 11
257 263 264 261 269 276 279 300 221 163 178 184 171 159 162 168 171 173 172 171 175 175 181 189 167 180 169 171 182 146 152 146 149 146 145 148 180 274 282 208 308 316 336 347 353 355 6 20 54
252 270 278 287 295 298 279 286 247 99 161 171 159 160 167 171 173 176 175 176 184 187 176 168 171 175 182 187 172 166 160 156 161 165 172 184 212 249 288 259 238 32 10 333 340 356 56 65 62
282 281 271 287 287 298 275 249 250 126 157 156 158 166 169 174 177 178 179 179 183 179 172 171 179 183 178 170 174 172 174 180 189 199 191 197 225 250 238 182 176 332 329 330 36 85 70 52 49
245 239 282 272 272 288 268 254 213 154 149 148 160 161 166 176 180 179 178 179 184 188 181 179 184 182 180 183 182 183 181 192 201 198 198 221 282 182 203 183 319 321 41 72 38 24 19 14 28
226 230 243 264 266 272 239 250 185 169 159 153 162 167 168 172 179 182 176 176 180 172 170 171 176 182 189 189 193 195 200 204 205 195 193 233 276 196 194 269 321 111 100 46 342 342 348 351 2
240 223 225 257 251 262 260 237 182 180 164 149 163 164 163 159 159 163 168 172 172 173 173 175 183 186 193 193 196 197 200 203 204 203 198 180 200 209 251 267 150 123 344 336 337 341 344 356 8
235 245 224 226 20 340 281 272 179 187 170 163 163 167 171 174 170 171 173 176 177 177 177 185 185 191 194 196 194 197 197 208 214 176 177 178 197 236 208 165 154 327 333 335 338 341 347 357 16
284 223 272 207 85 80 304 310 203 191 176 164 162 165 169 182 177 180 179 181 185 185 186 194 193 198 197 195 196 199 196 207 177 173 172 175 186 173 170 186 324 331 330 340 341 345 352 358 40
238 255 243 275 174 119 324 300 314 211 186 172 165 169 168 178 177 178 180 184 187 188 188 191 194 196 198 202 206 199 186 177 176 177 171 168 166 169 178 274 332 338 346 348 343 347 354 5 24
241 242 214 308 229 88 307 254 297 236 188 171 171 167 168 178 177 176 182 186 187 188 191 190 193 193 200 202 199 191 180 174 177 179 170 166 164 178 212 291 352 348 349 348 353 358 359 11 19
264 219 221 199 179 237 168 279 258 300 197 175 167 171 178 182 185 181 185 185 187 189 189 196 197 203 205 204 199 195 183 178 171 168 169 170 173 178 324 349 2 354 350 355 354 360 2 10 16
254 188 217 191 186 175 156 254 164 184 282 205 179 178 175 182 188 184 185 189 185 187 190 194 196 195 202 196 189 180 173 172 167 166 173 174 177 175 230 358 357 353 350 348 355 358 5 4 11
270 232 275 198 203 233 188 170 200 191 217 216 189 175 169 174 184 186 181 184 183 182 187 189 189 187 183 187 182 176 174 173 168 168 175 174 181 190 89 347 341 349 350 347 349 356 5 10 7
147 224 227 215 188 227 165 179 244 210 156 192 198 169 161 171 183 183 180 180 178 180 179 176 180 178 180 179 172 170 162 174 166 169 177 179 175 155 296 339 342 341 344 339 342 351 360 1 360
201 221 256 220 180 184 152 208 266 171 165 147 184 184 170 176 182 180 179 178 178 177 172 168 174 183 173 177 162 166 172 170 174 174 184 170 170 203 286 322 327 332 335 329 330 337 346 351 347
261 213 123 310 257 172 169 275 280 134 209 222 180 166 173 179 188 184 177 165 172 179 172 168 168 166 168 163 155 175 176 173 180 184 167 171 196 220 278 316 322 319 322 319 324 330 336 335 334
226 195 54 77 292 87 55 337 256 206 223 126 160 164 169 175 185 186 169 183 179 177 175 172 177 183 176 161 166 177 184 179 186 173 175 196 207 230 284 307 321 316 314 313 317 323 329 325 322
244 249 255 160 250 330 121 253 200 197 197 175 170 169 167 173 181 179 174 185 180 179 174 180 177 175 164 174 173 183 182 186 182 183 197 208 215 234 278 312 310 306 305 309 319 318 317 317 317
256 255 210 151 272 260 248 214 296 264 161 159 156 149 150 172 183 188 177 182 181 184 180 179 177 172 175 175 180 179 187 182 184 194 206 214 222 246 278 297 295 302 310 310 312 313 311 309 310